,,,PA_Meas_PMT16A,,PR_Meas_QMR101_102,,RH_Meas_QMH101,,SR_Meas_QMS101,,TA_Meas_QMH101,,GenWind,,GenWind,
date,time,status,PA,status,PR,status,RH,status,SR,status,TA,status,DirAvg,status,SpdAvg,
2009-08-17, 00:00:04,VALID,1001.22,VALID,0,VALID,92.2803,VALID,0,VALID,22.5501,VALID,344,VALID,0,
2009-08-17, 00:01:04,VALID,1001.2,VALID,0,VALID,92.2497,VALID,0,VALID,22.5501,VALID,344,VALID,0.149609,
2009-08-17, 00:02:04,VALID,1001.21,VALID,0,VALID,92.2497,VALID,0,VALID,22.5094,VALID,344,VALID,0.211719,
2009-08-17, 00:03:04,VALID,1001.22,VALID,0,VALID,92.3413,VALID,0,VALID,22.5501,VALID,344,VALID,0.123047,
2009-08-17, 00:04:04,VALID,1001.2,VALID,0,VALID,92.3794,VALID,0,VALID,22.5289,VALID,344,VALID,0.131641,
2009-08-17, 00:05:04,VALID,1001.2,VALID,0,VALID,92.3566,VALID,0,VALID,22.5306,VALID,344,VALID,0,
2009-08-17, 00:06:04,VALID,1001.19,VALID,0,VALID,92.3413,VALID,0,VALID,22.5501,VALID,344,VALID,0,
2009-08-17, 00:07:04,VALID,1001.18,VALID,0,VALID,92.3718,VALID,0,VALID,22.5094,VALID,344,VALID,0,
2009-08-17, 00:08:04,VALID,1001.15,VALID,0,VALID,92.3566,VALID,0,VALID,22.5111,VALID,344,VALID,0,
2009-08-17, 00:09:04,VALID,1001.18,VALID,0,VALID,92.3108,VALID,0,VALID,22.4916,VALID,344,VALID,0,
2009-08-17, 00:10:04,VALID,1001.16,VALID,0,VALID,92.2879,VALID,0,VALID,22.4526,VALID,344,VALID,0,
2009-08-17, 00:11:04,VALID,1001.17,VALID,0,VALID,92.4939,VALID,0,VALID,22.4509,VALID,344,VALID,0,
2009-08-17, 00:12:04,VALID,1001.17,VALID,0,VALID,92.6007,VALID,0,VALID,22.4738,VALID,344,VALID,0,
2009-08-17, 00:13:04,VALID,1001.15,VALID,0,VALID,92.2192,VALID,0,VALID,22.4348,VALID,344,VALID,0.373047,
2009-08-17, 00:14:04,VALID,1001.19,VALID,0,VALID,92.4939,VALID,0,VALID,22.3941,VALID,344,VALID,0.454297,
2009-08-17, 00:15:04,VALID,1001.16,VALID,0,VALID,92.738,VALID,0,VALID,22.4348,VALID,344,VALID,0.578125,
2009-08-17, 00:16:04,VALID,1001.14,VALID,0,VALID,92.8983,VALID,0,VALID,22.4331,VALID,25,VALID,0.759375,
2009-08-17, 00:17:04,VALID,1001.11,VALID,0,VALID,92.9898,VALID,0,VALID,22.4933,VALID,26,VALID,0.637109,
2009-08-17, 00:18:04,VALID,1001.1,VALID,0,VALID,92.9364,VALID,0,VALID,22.5128,VALID,29,VALID,0.968359,
2009-08-17, 00:19:04,VALID,1001.03,VALID,0,VALID,92.883,VALID,0,VALID,22.5323,VALID,29,VALID,1.15313,
2009-08-17, 00:20:04,VALID,1001.03,VALID,0,VALID,92.4481,VALID,0,VALID,22.5111,VALID,32,VALID,1.07734,
2009-08-17, 00:21:04,VALID,1001.01,VALID,0,VALID,92.0971,VALID,0,VALID,22.4543,VALID,40,VALID,1.04492,
2009-08-17, 00:22:04,VALID,1000.96,VALID,0,VALID,92.1124,VALID,0,VALID,22.3746,VALID,40,VALID,1.00703,
2009-08-17, 00:23:04,VALID,1000.91,VALID,0,VALID,92.5397,VALID,0,VALID,22.3958,VALID,40,VALID,0.989453,
2009-08-17, 00:24:04,VALID,1000.91,VALID,0,VALID,92.4481,VALID,0,VALID,22.3746,VALID,40,VALID,0.724219,
2009-08-17, 00:25:04,VALID,1000.89,VALID,0,VALID,92.2421,VALID,0,VALID,22.3356,VALID,40,VALID,0.610156,
2009-08-17, 00:26:04,VALID,1000.91,VALID,0,VALID,92.4939,VALID,0,VALID,22.3161,VALID,40,VALID,0.828125,
2009-08-17, 00:27:04,VALID,1000.89,VALID,0,VALID,92.5931,VALID,0,VALID,22.3178,VALID,40,VALID,0.917969,
2009-08-17, 00:28:04,VALID,1000.9,VALID,0,VALID,92.5549,VALID,0,VALID,22.3178,VALID,39,VALID,0.857813,
2009-08-17, 00:29:04,VALID,1000.87,VALID,0,VALID,92.4328,VALID,0,VALID,22.2788,VALID,35,VALID,0.846484,
2009-08-17, 00:30:04,VALID,1000.89,VALID,0,VALID,92.3871,VALID,0,VALID,22.2186,VALID,35,VALID,0.600781,
2009-08-17, 00:31:04,VALID,1000.88,VALID,0,VALID,92.3031,VALID,0,VALID,22.1812,VALID,35,VALID,0.278125,
2009-08-17, 00:32:04,VALID,1000.9,VALID,0,VALID,92.4634,VALID,0,VALID,22.1227,VALID,35,VALID,0.442578,
2009-08-17, 00:33:04,VALID,1000.92,VALID,0,VALID,92.7991,VALID,0,VALID,22.1617,VALID,31,VALID,0.560547,
2009-08-17, 00:34:04,VALID,1000.9,VALID,0,VALID,92.9288,VALID,0,VALID,22.1795,VALID,21,VALID,0.602734,
2009-08-17, 00:35:04,VALID,1000.89,VALID,0,VALID,92.9211,VALID,0,VALID,22.2007,VALID,14,VALID,0.541406,
2009-08-17, 00:36:04,VALID,1000.89,VALID,0,VALID,92.8448,VALID,0,VALID,22.2007,VALID,11,VALID,0.260156,
2009-08-17, 00:37:04,VALID,1000.91,VALID,0,VALID,92.8296,VALID,0,VALID,22.2202,VALID,10,VALID,0.340234,
2009-08-17, 00:38:04,VALID,1000.87,VALID,0,VALID,92.9135,VALID,0,VALID,22.2202,VALID,10,VALID,0,
2009-08-17, 00:39:04,VALID,1000.87,VALID,0,VALID,92.8448,VALID,0,VALID,22.2202,VALID,10,VALID,0,
2009-08-17, 00:40:04,VALID,1000.87,VALID,0,VALID,92.8296,VALID,0,VALID,22.199,VALID,10,VALID,0,
2009-08-17, 00:41:04,VALID,1000.9,VALID,0,VALID,92.8754,VALID,0,VALID,22.2202,VALID,10,VALID,0,
2009-08-17, 00:42:04,VALID,1000.89,VALID,0,VALID,92.8525,VALID,0,VALID,22.2007,VALID,10,VALID,0,
2009-08-17, 00:43:04,VALID,1000.88,VALID,0,VALID,92.8983,VALID,0,VALID,22.2007,VALID,10,VALID,0,
2009-08-17, 00:44:04,VALID,1000.89,VALID,0,VALID,92.8677,VALID,0,VALID,22.2007,VALID,10,VALID,0.23125,
2009-08-17, 00:45:04,VALID,1000.84,VALID,0,VALID,93.0203,VALID,0,VALID,22.1795,VALID,10,VALID,0.428516,
2009-08-17, 00:46:04,VALID,1000.84,VALID,0,VALID,93.0814,VALID,0,VALID,22.199,VALID,10,VALID,0.45625,
2009-08-17, 00:47:04,VALID,1000.82,VALID,0,VALID,93.0814,VALID,0,VALID,22.2202,VALID,10,VALID,0.516406,
2009-08-17, 00:48:04,VALID,1000.82,VALID,0,VALID,93.1119,VALID,0,VALID,22.2397,VALID,14,VALID,0.6875,
2009-08-17, 00:49:04,VALID,1000.78,VALID,0,VALID,93.0814,VALID,0,VALID,22.2397,VALID,18,VALID,0.876953,
2009-08-17, 00:50:04,VALID,1000.76,VALID,0,VALID,93.0051,VALID,0,VALID,22.2397,VALID,24,VALID,0.914844,
2009-08-17, 00:51:04,VALID,1000.77,VALID,0,VALID,92.8143,VALID,0,VALID,22.2007,VALID,31,VALID,0.982422,
2009-08-17, 00:52:04,VALID,1000.75,VALID,0,VALID,92.6312,VALID,0,VALID,22.1405,VALID,38,VALID,1.06992,
2009-08-17, 00:53:04,VALID,1000.73,VALID,0,VALID,92.7914,VALID,0,VALID,22.082,VALID,38,VALID,1.00117,
2009-08-17, 00:54:04,VALID,1000.71,VALID,0,VALID,92.8754,VALID,0,VALID,22.082,VALID,38,VALID,0.969922,
2009-08-17, 00:55:04,VALID,1000.72,VALID,0,VALID,92.9898,VALID,0,VALID,22.0625,VALID,38,VALID,0.874609,
2009-08-17, 00:56:04,VALID,1000.68,VALID,0,VALID,92.6999,VALID,0,VALID,22.0235,VALID,26,VALID,0.916406,
2009-08-17, 00:57:04,VALID,1000.69,VALID,0,VALID,92.5549,VALID,0,VALID,21.9667,VALID,24,VALID,0.844531,
2009-08-17, 00:58:04,VALID,1000.66,VALID,0,VALID,92.7609,VALID,0.112286,VALID,21.9065,VALID,25,VALID,0.808203,
2009-08-17, 00:59:04,VALID,1000.67,VALID,0,VALID,92.8143,VALID,0,VALID,21.9065,VALID,25,VALID,0.660937,
2009-08-17, 01:00:04,VALID,1000.67,VALID,0,VALID,92.822,VALID,0,VALID,21.8675,VALID,25,VALID,0.698047,
2009-08-17, 01:01:04,VALID,1000.68,VALID,0,VALID,92.9745,VALID,0,VALID,21.848,VALID,25,VALID,0.752734,
2009-08-17, 01:02:04,VALID,1000.66,VALID,0,VALID,92.9593,VALID,0,VALID,21.8285,VALID,25,VALID,0.746875,
2009-08-17, 01:03:04,VALID,1000.63,VALID,0,VALID,92.9211,VALID,0,VALID,21.809,VALID,25,VALID,0.622266,
2009-08-17, 01:04:04,VALID,1000.65,VALID,0,VALID,93.0203,VALID,0,VALID,21.8301,VALID,27,VALID,0.567578,
2009-08-17, 01:05:04,VALID,1000.65,VALID,0,VALID,93.15,VALID,0,VALID,21.8285,VALID,33,VALID,0.772266,
2009-08-17, 01:06:04,VALID,1000.67,VALID,0,VALID,93.4934,VALID,0,VALID,21.8675,VALID,44,VALID,0.8875,
2009-08-17, 01:07:04,VALID,1000.65,VALID,0,VALID,93.6917,VALID,0,VALID,21.9862,VALID,45,VALID,0.877344,
2009-08-17, 01:08:04,VALID,1000.62,VALID,0,VALID,93.6536,VALID,0,VALID,22.0235,VALID,47,VALID,0.954687,
2009-08-17, 01:09:04,VALID,1000.6,VALID,0,VALID,93.4094,VALID,0,VALID,22.0642,VALID,59,VALID,1.0875,
2009-08-17, 01:10:04,VALID,1000.6,VALID,0,VALID,93.295,VALID,0,VALID,22.0625,VALID,70,VALID,1.31992,
2009-08-17, 01:11:04,VALID,1000.59,VALID,0,VALID,93.3179,VALID,0,VALID,22.0625,VALID,71,VALID,1.21133,
2009-08-17, 01:12:04,VALID,1000.57,VALID,0,VALID,93.1195,VALID,0,VALID,22.0642,VALID,77,VALID,1.12617,
2009-08-17, 01:13:04,VALID,1000.57,VALID,0,VALID,93.2645,VALID,0,VALID,22.0642,VALID,80,VALID,1.21172,
2009-08-17, 01:14:04,VALID,1000.55,VALID,0,VALID,93.2416,VALID,0,VALID,22.0625,VALID,83,VALID,1.06562,
2009-08-17, 01:15:04,VALID,1000.58,VALID,0,VALID,93.234,VALID,0,VALID,22.0642,VALID,84,VALID,0.867188,
2009-08-17, 01:16:04,VALID,1000.56,VALID,0,VALID,93.2645,VALID,0,VALID,22.0642,VALID,90,VALID,1.05703,
2009-08-17, 01:17:04,VALID,1000.57,VALID,0,VALID,93.2492,VALID,0,VALID,22.0625,VALID,91,VALID,0.953125,
2009-08-17, 01:18:04,VALID,1000.58,VALID,0,VALID,93.1729,VALID,0,VALID,22.0625,VALID,91,VALID,0.864453,
2009-08-17, 01:19:04,VALID,1000.57,VALID,0,VALID,93.2416,VALID,0,VALID,22.0625,VALID,91,VALID,0.842969,
2009-08-17, 01:20:04,VALID,1000.58,VALID,0,VALID,93.234,VALID,0,VALID,22.0625,VALID,91,VALID,0.770703,
2009-08-17, 01:21:04,VALID,1000.56,VALID,0,VALID,93.2645,VALID,0,VALID,22.082,VALID,82,VALID,0.625,
2009-08-17, 01:22:04,VALID,1000.55,VALID,0,VALID,93.3408,VALID,0,VALID,22.082,VALID,76,VALID,0.524219,
2009-08-17, 01:23:04,VALID,1000.53,VALID,0,VALID,93.3255,VALID,0,VALID,22.1227,VALID,76,VALID,0.364062,
2009-08-17, 01:24:04,VALID,1000.52,VALID,0,VALID,93.3179,VALID,0,VALID,22.121,VALID,76,VALID,0.250391,
2009-08-17, 01:25:04,VALID,1000.49,VALID,0,VALID,93.2034,VALID,0,VALID,22.1405,VALID,76,VALID,0.166797,
2009-08-17, 01:26:04,VALID,1000.52,VALID,0,VALID,93.0737,VALID,0,VALID,22.1015,VALID,76,VALID,0.278516,
2009-08-17, 01:27:04,VALID,1000.49,VALID,0,VALID,93.0966,VALID,0,VALID,22.1015,VALID,76,VALID,0.0496094,
2009-08-17, 01:28:04,VALID,1000.49,VALID,0,VALID,93.0814,VALID,0,VALID,22.1032,VALID,76,VALID,0,
2009-08-17, 01:29:04,VALID,1000.49,VALID,0,VALID,93.1805,VALID,0,VALID,22.1227,VALID,76,VALID,0.287891,
2009-08-17, 01:30:04,VALID,1000.5,VALID,0,VALID,93.1805,VALID,0,VALID,22.1227,VALID,76,VALID,0.350781,
2009-08-17, 01:31:04,VALID,1000.49,VALID,0,VALID,93.1043,VALID,0,VALID,22.082,VALID,76,VALID,0.469531,
2009-08-17, 01:32:04,VALID,1000.49,VALID,0,VALID,93.0432,VALID,0,VALID,22.082,VALID,76,VALID,0.425,
2009-08-17, 01:33:04,VALID,1000.53,VALID,0,VALID,93.0737,VALID,0,VALID,22.082,VALID,76,VALID,0.581641,
2009-08-17, 01:34:04,VALID,1000.49,VALID,0,VALID,93.2187,VALID,0,VALID,22.0625,VALID,76,VALID,0.590625,
2009-08-17, 01:35:04,VALID,1000.51,VALID,0,VALID,92.9059,VALID,0,VALID,22.043,VALID,76,VALID,0.480469,
2009-08-17, 01:36:04,VALID,1000.49,VALID,0,VALID,93.0814,VALID,0,VALID,22.0447,VALID,76,VALID,0.583984,
2009-08-17, 01:37:04,VALID,1000.48,VALID,0,VALID,93.2416,VALID,0,VALID,22.0235,VALID,76,VALID,0.706641,
2009-08-17, 01:38:04,VALID,1000.5,VALID,0,VALID,93.295,VALID,0,VALID,22.043,VALID,76,VALID,0.464844,
2009-08-17, 01:39:04,VALID,1000.46,VALID,0,VALID,93.295,VALID,0,VALID,22.1015,VALID,76,VALID,0.356641,
2009-08-17, 01:40:04,VALID,1000.46,VALID,0,VALID,93.0661,VALID,0,VALID,22.0625,VALID,76,VALID,0.277734,
2009-08-17, 01:41:04,VALID,1000.51,VALID,0,VALID,92.8677,VALID,0,VALID,22.0642,VALID,76,VALID,0.187891,
2009-08-17, 01:42:04,VALID,1000.47,VALID,0,VALID,92.9745,VALID,0,VALID,22.0252,VALID,76,VALID,0.122266,
2009-08-17, 01:43:04,VALID,1000.45,VALID,0,VALID,93.0356,VALID,0,VALID,22.0447,VALID,76,VALID,0.252734,
2009-08-17, 01:44:04,VALID,1000.43,VALID,0,VALID,92.8906,VALID,0,VALID,22.0057,VALID,76,VALID,0.310156,
2009-08-17, 01:45:04,VALID,1000.43,VALID,0,VALID,93.028,VALID,0,VALID,22.004,VALID,76,VALID,0.21875,
2009-08-17, 01:46:04,VALID,1000.41,VALID,0,VALID,92.9517,VALID,0,VALID,21.965,VALID,76,VALID,0.283984,
2009-08-17, 01:47:04,VALID,1000.36,VALID,0,VALID,92.8906,VALID,0,VALID,21.965,VALID,76,VALID,0.0382813,
2009-08-17, 01:48:04,VALID,1000.36,VALID,0,VALID,92.8448,VALID,0,VALID,21.926,VALID,76,VALID,0.140234,
2009-08-17, 01:49:04,VALID,1000.36,VALID,0,VALID,92.8448,VALID,0,VALID,21.9065,VALID,76,VALID,0,
2009-08-17, 01:50:04,VALID,1000.36,VALID,0,VALID,92.9669,VALID,0,VALID,21.9065,VALID,76,VALID,0.0839844,
2009-08-17, 01:51:04,VALID,1000.31,VALID,0,VALID,93.1271,VALID,0,VALID,21.926,VALID,76,VALID,0.305859,
2009-08-17, 01:52:04,VALID,1000.34,VALID,0,VALID,93.2568,VALID,0,VALID,21.9862,VALID,76,VALID,0.191016,
2009-08-17, 01:53:04,VALID,1000.33,VALID,0,VALID,93.2187,VALID,0,VALID,21.9845,VALID,76,VALID,0.216406,
2009-08-17, 01:54:04,VALID,1000.33,VALID,0,VALID,93.1653,VALID,0,VALID,21.9845,VALID,76,VALID,0.155078,
2009-08-17, 01:55:04,VALID,1000.36,VALID,0,VALID,93.0661,VALID,0,VALID,21.9862,VALID,76,VALID,0.195313,
2009-08-17, 01:56:04,VALID,1000.34,VALID,0,VALID,93.1271,VALID,0,VALID,21.9862,VALID,76,VALID,0.162109,
2009-08-17, 01:57:04,VALID,1000.32,VALID,0,VALID,93.0814,VALID,0,VALID,21.9862,VALID,76,VALID,0,
2009-08-17, 01:58:04,VALID,1000.33,VALID,0,VALID,93.0432,VALID,0,VALID,21.965,VALID,76,VALID,0,
2009-08-17, 01:59:04,VALID,1000.32,VALID,0,VALID,93.0966,VALID,0,VALID,21.9455,VALID,76,VALID,0.178125,
2009-08-17, 02:00:04,VALID,1000.27,VALID,0,VALID,93.1195,VALID,0,VALID,21.9862,VALID,76,VALID,0.105078,
2009-08-17, 02:01:04,VALID,1000.27,VALID,0,VALID,93.2416,VALID,0,VALID,21.965,VALID,76,VALID,0.158203,
2009-08-17, 02:02:04,VALID,1000.23,VALID,0,VALID,93.2263,VALID,0,VALID,21.9862,VALID,76,VALID,0.145703,
2009-08-17, 02:03:04,VALID,1000.18,VALID,0,VALID,93.2416,VALID,0,VALID,22.0057,VALID,76,VALID,0.159375,
2009-08-17, 02:04:04,VALID,1000.18,VALID,0,VALID,93.2034,VALID,0,VALID,21.9862,VALID,76,VALID,0,
2009-08-17, 02:05:04,VALID,1000.15,VALID,0,VALID,93.2187,VALID,0,VALID,21.965,VALID,76,VALID,0,
2009-08-17, 02:06:04,VALID,1000.14,VALID,0,VALID,93.2645,VALID,0,VALID,21.9845,VALID,76,VALID,0.260156,
2009-08-17, 02:07:04,VALID,1000.12,VALID,0,VALID,93.2568,VALID,0,VALID,21.9845,VALID,76,VALID,0.213281,
2009-08-17, 02:08:04,VALID,1000.13,VALID,0,VALID,93.1958,VALID,0.112286,VALID,21.9845,VALID,76,VALID,0.0820313,
2009-08-17, 02:09:04,VALID,1000.13,VALID,0,VALID,93.234,VALID,0.112286,VALID,21.9845,VALID,76,VALID,0.0046875,
2009-08-17, 02:10:04,VALID,1000.08,VALID,0,VALID,93.2416,VALID,0,VALID,21.965,VALID,76,VALID,0,
2009-08-17, 02:11:04,VALID,1000.08,VALID,0,VALID,93.3331,VALID,0,VALID,21.9845,VALID,76,VALID,0.262109,
2009-08-17, 02:12:04,VALID,1000.06,VALID,0,VALID,93.2263,VALID,0,VALID,21.965,VALID,76,VALID,0.321875,
2009-08-17, 02:13:04,VALID,1000.04,VALID,0,VALID,93.2111,VALID,0,VALID,21.9455,VALID,76,VALID,0.192188,
2009-08-17, 02:14:04,VALID,1000.02,VALID,0,VALID,93.2492,VALID,0,VALID,21.926,VALID,76,VALID,0.245703,
2009-08-17, 02:15:04,VALID,999.986,VALID,0,VALID,93.2568,VALID,0,VALID,21.926,VALID,76,VALID,0.142578,
2009-08-17, 02:16:04,VALID,999.977,VALID,0,VALID,93.2721,VALID,0,VALID,21.926,VALID,76,VALID,0,
2009-08-17, 02:17:04,VALID,999.963,VALID,0,VALID,93.2797,VALID,0.112286,VALID,21.9065,VALID,76,VALID,0,
2009-08-17, 02:18:04,VALID,999.953,VALID,0,VALID,93.2263,VALID,0,VALID,21.8675,VALID,76,VALID,0,
2009-08-17, 02:19:04,VALID,999.921,VALID,0,VALID,93.1958,VALID,0,VALID,21.848,VALID,76,VALID,0,
2009-08-17, 02:20:04,VALID,999.924,VALID,0,VALID,93.2645,VALID,0,VALID,21.8496,VALID,76,VALID,0,
2009-08-17, 02:21:04,VALID,999.946,VALID,0,VALID,93.5468,VALID,0,VALID,21.8675,VALID,76,VALID,0.319141,
2009-08-17, 02:22:04,VALID,999.905,VALID,0,VALID,93.6078,VALID,0,VALID,21.9065,VALID,76,VALID,0.157031,
2009-08-17, 02:23:04,VALID,999.923,VALID,0,VALID,93.4628,VALID,0,VALID,21.926,VALID,76,VALID,0.336328,
2009-08-17, 02:24:04,VALID,999.909,VALID,0,VALID,93.3255,VALID,0,VALID,21.887,VALID,76,VALID,0.258203,
2009-08-17, 02:25:04,VALID,999.908,VALID,0,VALID,93.1424,VALID,0,VALID,21.8887,VALID,76,VALID,0.512109,
2009-08-17, 02:26:04,VALID,999.914,VALID,0,VALID,93.1653,VALID,0,VALID,21.8285,VALID,76,VALID,0.534375,
2009-08-17, 02:27:04,VALID,999.914,VALID,0,VALID,93.295,VALID,0,VALID,21.8106,VALID,70,VALID,0.505859,
2009-08-17, 02:28:04,VALID,999.932,VALID,0,VALID,93.646,VALID,0,VALID,21.809,VALID,70,VALID,0.503906,
2009-08-17, 02:29:04,VALID,999.92,VALID,0,VALID,93.7757,VALID,0.112286,VALID,21.887,VALID,45,VALID,0.836719,
2009-08-17, 02:30:04,VALID,999.904,VALID,0,VALID,93.8138,VALID,0,VALID,21.9862,VALID,41,VALID,0.921875,
2009-08-17, 02:31:04,VALID,999.883,VALID,0,VALID,93.6841,VALID,0,VALID,21.965,VALID,17,VALID,1.00078,
2009-08-17, 02:32:04,VALID,999.87,VALID,0,VALID,93.4857,VALID,0,VALID,21.965,VALID,360,VALID,1.23086,
2009-08-17, 02:33:04,VALID,999.838,VALID,0,VALID,93.4476,VALID,0,VALID,21.9455,VALID,353,VALID,1.06016,
2009-08-17, 02:34:04,VALID,999.805,VALID,0,VALID,93.5239,VALID,0,VALID,21.9845,VALID,348,VALID,1.41328,
2009-08-17, 02:35:04,VALID,999.864,VALID,0,VALID,93.501,VALID,0,VALID,21.965,VALID,349,VALID,0.901172,
2009-08-17, 02:36:04,VALID,999.844,VALID,0,VALID,93.3637,VALID,0,VALID,21.965,VALID,349,VALID,0.246484,
2009-08-17, 02:37:04,VALID,999.863,VALID,0,VALID,93.3179,VALID,0,VALID,21.9455,VALID,349,VALID,0.64375,
2009-08-17, 02:38:04,VALID,999.856,VALID,0,VALID,93.2111,VALID,0,VALID,21.9472,VALID,349,VALID,0.478125,
2009-08-17, 02:39:04,VALID,999.86,VALID,0,VALID,93.3103,VALID,0,VALID,21.9472,VALID,349,VALID,0.594141,
2009-08-17, 02:40:04,VALID,999.89,VALID,0,VALID,93.234,VALID,0,VALID,21.887,VALID,350,VALID,0.560938,
2009-08-17, 02:41:04,VALID,999.867,VALID,0,VALID,93.3789,VALID,0,VALID,21.9277,VALID,2,VALID,0.541016,
2009-08-17, 02:42:04,VALID,999.906,VALID,0,VALID,93.295,VALID,0,VALID,21.9065,VALID,17,VALID,0.492188,
2009-08-17, 02:43:04,VALID,999.858,VALID,0,VALID,93.295,VALID,0,VALID,21.887,VALID,28,VALID,0.733984,
2009-08-17, 02:44:04,VALID,999.882,VALID,0,VALID,93.3026,VALID,0,VALID,21.887,VALID,29,VALID,0.905859,
2009-08-17, 02:45:04,VALID,999.883,VALID,0,VALID,93.1271,VALID,0,VALID,21.848,VALID,28,VALID,0.908203,
2009-08-17, 02:46:04,VALID,999.918,VALID,0,VALID,93.0356,VALID,0,VALID,21.8301,VALID,29,VALID,0.461328,
2009-08-17, 02:47:04,VALID,999.906,VALID,0,VALID,93.15,VALID,0,VALID,21.7895,VALID,34,VALID,0.617578,
2009-08-17, 02:48:04,VALID,999.911,VALID,0,VALID,93.2034,VALID,0,VALID,21.8106,VALID,34,VALID,0.852344,
2009-08-17, 02:49:04,VALID,999.9,VALID,0,VALID,93.2492,VALID,0,VALID,21.8301,VALID,34,VALID,0.584375,
2009-08-17, 02:50:04,VALID,999.911,VALID,0,VALID,93.1195,VALID,0,VALID,21.7895,VALID,34,VALID,0.420703,
2009-08-17, 02:51:04,VALID,999.918,VALID,0,VALID,93.1271,VALID,0,VALID,21.7911,VALID,34,VALID,0.389453,
2009-08-17, 02:52:04,VALID,999.89,VALID,0,VALID,93.2034,VALID,0,VALID,21.77,VALID,34,VALID,0.380859,
2009-08-17, 02:53:04,VALID,999.848,VALID,0,VALID,93.295,VALID,0,VALID,21.7895,VALID,43,VALID,0.604297,
2009-08-17, 02:54:04,VALID,999.858,VALID,0,VALID,93.3866,VALID,0,VALID,21.8301,VALID,44,VALID,0.629687,
2009-08-17, 02:55:04,VALID,999.89,VALID,0,VALID,93.4628,VALID,0,VALID,21.8675,VALID,55,VALID,0.695313,
2009-08-17, 02:56:04,VALID,999.889,VALID,0,VALID,93.3713,VALID,0,VALID,21.8887,VALID,64,VALID,0.740234,
2009-08-17, 02:57:04,VALID,999.851,VALID,0,VALID,93.356,VALID,0,VALID,21.9277,VALID,64,VALID,0.636719,
2009-08-17, 02:58:04,VALID,999.88,VALID,0,VALID,93.2645,VALID,0,VALID,21.9472,VALID,64,VALID,0.489844,
2009-08-17, 02:59:04,VALID,999.866,VALID,0,VALID,93.2111,VALID,0,VALID,21.9472,VALID,64,VALID,0.514063,
2009-08-17, 03:00:04,VALID,999.872,VALID,0,VALID,93.3103,VALID,0,VALID,21.9862,VALID,67,VALID,0.578516,
2009-08-17, 03:01:04,VALID,999.839,VALID,0,VALID,93.3331,VALID,0,VALID,22.004,VALID,67,VALID,0.338672,
2009-08-17, 03:02:04,VALID,999.823,VALID,0,VALID,93.2874,VALID,0,VALID,22.0235,VALID,67,VALID,0.366016,
2009-08-17, 03:03:04,VALID,999.811,VALID,0,VALID,93.2568,VALID,0,VALID,22.043,VALID,67,VALID,0.172656,
2009-08-17, 03:04:04,VALID,999.813,VALID,0,VALID,93.1653,VALID,0,VALID,22.0642,VALID,67,VALID,0.204688,
2009-08-17, 03:05:04,VALID,999.809,VALID,0,VALID,93.1195,VALID,0,VALID,22.043,VALID,67,VALID,0.406641,
2009-08-17, 03:06:04,VALID,999.792,VALID,0,VALID,93.089,VALID,0,VALID,22.0642,VALID,49,VALID,0.774219,
2009-08-17, 03:07:04,VALID,999.798,VALID,0,VALID,93.0585,VALID,0,VALID,22.0837,VALID,50,VALID,0.598828,
2009-08-17, 03:08:04,VALID,999.805,VALID,0,VALID,92.9364,VALID,0,VALID,22.0837,VALID,50,VALID,0.478125,
2009-08-17, 03:09:04,VALID,999.772,VALID,0,VALID,92.8906,VALID,0,VALID,22.0837,VALID,49,VALID,0.605469,
2009-08-17, 03:10:04,VALID,999.757,VALID,0,VALID,92.8601,VALID,0,VALID,22.0625,VALID,50,VALID,0.541406,
2009-08-17, 03:11:04,VALID,999.757,VALID,0,VALID,92.8983,VALID,0,VALID,22.0235,VALID,49,VALID,0.622266,
2009-08-17, 03:12:04,VALID,999.721,VALID,0,VALID,92.9898,VALID,0,VALID,22.0447,VALID,38,VALID,0.745703,
2009-08-17, 03:13:04,VALID,999.744,VALID,0,VALID,93.0051,VALID,0,VALID,22.043,VALID,32,VALID,0.538281,
2009-08-17, 03:14:04,VALID,999.722,VALID,0,VALID,92.9745,VALID,0,VALID,22.0837,VALID,25,VALID,0.614453,
2009-08-17, 03:15:04,VALID,999.707,VALID,0,VALID,92.944,VALID,0,VALID,22.043,VALID,16,VALID,0.629297,
2009-08-17, 03:16:04,VALID,999.691,VALID,0,VALID,92.9822,VALID,0,VALID,22.0642,VALID,16,VALID,0.483984,
2009-08-17, 03:17:04,VALID,999.7,VALID,0,VALID,93.0051,VALID,0,VALID,22.0837,VALID,16,VALID,0.519531,
2009-08-17, 03:18:04,VALID,999.714,VALID,0,VALID,92.9593,VALID,0,VALID,22.0837,VALID,16,VALID,0.305859,
2009-08-17, 03:19:04,VALID,999.698,VALID,0,VALID,92.9593,VALID,0,VALID,22.0642,VALID,16,VALID,0.281641,
2009-08-17, 03:20:04,VALID,999.719,VALID,0,VALID,92.8983,VALID,0,VALID,22.0447,VALID,16,VALID,0.228125,
2009-08-17, 03:21:04,VALID,999.682,VALID,0,VALID,92.944,VALID,0,VALID,22.0447,VALID,16,VALID,0.263672,
2009-08-17, 03:22:04,VALID,999.648,VALID,0,VALID,93.0661,VALID,0,VALID,22.0837,VALID,16,VALID,0.149609,
2009-08-17, 03:23:04,VALID,999.643,VALID,0,VALID,93.0508,VALID,0,VALID,22.0837,VALID,16,VALID,0.103906,
2009-08-17, 03:24:04,VALID,999.628,VALID,0,VALID,92.9898,VALID,0,VALID,22.0837,VALID,16,VALID,0,
2009-08-17, 03:25:04,VALID,999.601,VALID,0,VALID,93.1119,VALID,0,VALID,22.082,VALID,16,VALID,0.14375,
2009-08-17, 03:26:04,VALID,999.611,VALID,0,VALID,93.0966,VALID,0,VALID,22.1227,VALID,16,VALID,0.171094,
2009-08-17, 03:27:04,VALID,999.607,VALID,0,VALID,92.9364,VALID,0,VALID,22.1032,VALID,16,VALID,0.490625,
2009-08-17, 03:28:04,VALID,999.643,VALID,0,VALID,92.9593,VALID,0,VALID,22.1015,VALID,16,VALID,0.0757812,
2009-08-17, 03:29:04,VALID,999.63,VALID,0,VALID,92.883,VALID,0,VALID,22.0837,VALID,16,VALID,0,
2009-08-17, 03:30:04,VALID,999.622,VALID,0,VALID,92.9974,VALID,0,VALID,22.0642,VALID,16,VALID,0.540625,
2009-08-17, 03:31:04,VALID,999.642,VALID,0,VALID,92.9822,VALID,0,VALID,22.0625,VALID,16,VALID,0.441406,
2009-08-17, 03:32:04,VALID,999.621,VALID,0,VALID,93.1119,VALID,0,VALID,22.0837,VALID,16,VALID,0.542969,
2009-08-17, 03:33:04,VALID,999.629,VALID,0,VALID,93.2034,VALID,0,VALID,22.1032,VALID,16,VALID,0.6875,
2009-08-17, 03:34:04,VALID,999.607,VALID,0,VALID,93.089,VALID,0,VALID,22.1032,VALID,16,VALID,0.623438,
2009-08-17, 03:35:04,VALID,999.602,VALID,0,VALID,92.8754,VALID,0,VALID,22.1015,VALID,16,VALID,0.853516,
2009-08-17, 03:36:04,VALID,999.613,VALID,0,VALID,92.9211,VALID,0,VALID,22.1032,VALID,352,VALID,0.860547,
2009-08-17, 03:37:04,VALID,999.615,VALID,0,VALID,92.883,VALID,0,VALID,22.1032,VALID,343,VALID,0.685938,
2009-08-17, 03:38:04,VALID,999.598,VALID,0,VALID,92.9669,VALID,0,VALID,22.1032,VALID,335,VALID,0.755859,
2009-08-17, 03:39:04,VALID,999.631,VALID,0,VALID,92.8906,VALID,0,VALID,22.0837,VALID,335,VALID,0.625781,
2009-08-17, 03:40:04,VALID,999.61,VALID,0,VALID,92.8525,VALID,0,VALID,22.0642,VALID,335,VALID,0.425391,
2009-08-17, 03:41:04,VALID,999.648,VALID,0,VALID,93.0127,VALID,0,VALID,22.0837,VALID,335,VALID,0.596484,
2009-08-17, 03:42:04,VALID,999.645,VALID,0,VALID,93.1119,VALID,0,VALID,22.1032,VALID,335,VALID,0.581641,
2009-08-17, 03:43:04,VALID,999.673,VALID,0,VALID,93.0508,VALID,0,VALID,22.1015,VALID,335,VALID,0.601563,
2009-08-17, 03:44:04,VALID,999.633,VALID,0,VALID,93.0661,VALID,0,VALID,22.1015,VALID,335,VALID,0.472266,
2009-08-17, 03:45:04,VALID,999.667,VALID,0,VALID,92.9517,VALID,0,VALID,22.1032,VALID,335,VALID,0.444141,
2009-08-17, 03:46:04,VALID,999.687,VALID,0,VALID,92.8601,VALID,0,VALID,22.0625,VALID,335,VALID,0.314453,
2009-08-17, 03:47:04,VALID,999.721,VALID,0,VALID,92.8906,VALID,0,VALID,22.0642,VALID,335,VALID,0.180078,
2009-08-17, 03:48:04,VALID,999.685,VALID,0,VALID,92.9669,VALID,0,VALID,22.0642,VALID,335,VALID,0.237891,